This demonstration page uses our WeatherBlox Daily Observations layout. Learn more.

Left ArrowRight Arrow

36.17497, -115.13722

Hourly Observations for July 9, 2020

Temp ( °F °C ) Dew Point ( °F °C ) Humidity (%) Winds ( mph kmh ) Pressure ( in mb ) Visibility ( mi km ) Precip ( " mm )
12:53 am 00:53 Clear 86 30 18 -7.8 8 8 SSW 5 7 29.72 1007 10 16 0.00 0.00
1:53 am 01:53 Clear 84 28.9 20 -6.7 9 9 NW 6 9 29.74 1007 10 16 0.00 0.00
2:53 am 02:53 Clear 81 27.2 21 -6.1 11 11 Calm 29.74 1007 10 16 0.00 0.00
3:53 am 03:53 Clear 77 25 24 -4.4 14 14 NW 6 9 29.75 1007 10 16 0.00 0.00
4:53 am 04:53 Clear 77 25 25 -3.9 14 14 WNW 6 9 29.76 1008 10 16 0.00 0.00
5:53 am 05:53 Sunny 74 23.3 22 -5.6 14 14 NNW 7 11 29.78 1008 10 16 0.00 0.00
6:53 am 06:53 Sunny 77 25 26 -3.3 15 15 NNW 5 7 29.78 1009 10 16 0.00 0.00
7:53 am 07:53 Sunny 82 27.8 29 -1.7 14 14 WNW 3 6 29.81 1010 10 16 0.00 0.00
8:53 am 08:53 Sunny 88 31.1 29 -1.7 12 12 Calm 29.82 1010 10 16 0.00 0.00
9:53 am 09:53 Sunny 91 32.8 31 -0.6 12 12 SE 5 7 29.82 1010 10 16 0.00 0.00
10:53 am 10:53 Sunny 96 35.6 30 -1.1 10 10 E 12 19 29.83 1010 10 16 0.00 0.00
11:53 am 11:53 Sunny 99 37.2 26 -3.3 7 7 SSE 10 17 29.82 1010 10 16 0.00 0.00
12:53 pm 12:53 Sunny 101 38.3 17 -8.3 5 5 S 7 11 29.80 1009 10 16 0.00 0.00
1:53 pm 13:53 Sunny 104 40 15 -9.4 4 4 SSE 13 20 29.78 1008 10 16 0.00 0.00
2:53 pm 14:53 Sunny 107 41.7 10 -12.2 3 3 SSE 16 26 29.75 1008 10 16 0.00 0.00
3:53 pm 15:53 Sunny 106 41.1 10 -12.2 3 3 S 8 13 29.74 1007 10 16 0.00 0.00
4:53 pm 16:53 Sunny 107 41.7 4 -15.6 2 2 SSW 14 22 29.74 1007 10 16 0.00 0.00
5:53 pm 17:53 Sunny 106 41.1 2 -16.7 2 2 S 14 22 29.74 1007 10 16 0.00 0.00
6:53 pm 18:53 Sunny 104 40 5 -15 2 2 WSW 13 20 29.75 1007 10 16 0.00 0.00
7:53 pm 19:53 Sunny 101 38.3 15 -9.4 4 4 WSW 14 22 29.75 1007 10 16 0.00 0.00
8:53 pm 20:53 Clear 99 37.2 17 -8.3 5 5 SSW 10 17 29.76 1008 10 16 0.00 0.00
9:53 pm 21:53 Clear 96 35.6 20 -6.7 6 6 S 8 13 29.79 1009 10 16 0.00 0.00
10:53 pm 22:53 Clear 93 33.9 20 -6.7 7 7 SW 8 13 29.80 1009 10 16 0.00 0.00
11:53 pm 23:53 Clear 91 32.8 22 -5.6 8 8 S 3 6 29.82 1010 10 16 0.00 0.00

Powered by AerisWeather